Regional Weather Roundup
Issued by NWS San Angelo, TX

Home | Current Version | Previous Version | Text Only | Print | Product List | Glossary On
Versions: 1 2 3 4 5 6 7 8 9 10 11 12 13 14 15 16 17 18 19 20 21 22 23 24 25 26 27 28 29 30 31 32 33 34 35 36 37 38 39 40 41 42 43 44 45 46 47 48 49 50
000
ASUS44 KSJT 080211
RWRSJT
WEST CENTRAL TEXAS REGIONAL WEATHER ROUNDUP
NATIONAL WEATHER SERVICE SAN ANGELO TX
800 PM CST SUN FEB 07 2016

NOTE: "FAIR" INDICATES FEW OR NO CLOUDS BELOW 12,000 FEET WITH NO
SIGNIFICANT WEATHER AND/OR OBSTRUCTIONS TO VISIBILITY.

TXZ049-054-064>066-071>073-076>078-098-099-113-114-127-128-139-140-
154-155-168>170-080300
...LOCATIONS ACROSS WEST CENTRAL TEXAS...

CITY           SKY/WX    TMP DP  RH WIND       PRES   REMARKS
SAN ANGELO     CLEAR     57  22  25 N16       30.19R
ABILENE        CLEAR     49  25  39 N6        30.22R
DYESS AFB      CLEAR     48  26  42 N7        30.22R
JUNCTION       CLOUDY    51  21  30 W6        30.15R
SWEETWATER     CLEAR     50  23  35 N8        30.26R
BROWNWOOD      CLEAR     55  23  28 N13       30.18R
COLEMAN        CLEAR     51  22  32 N9        30.21R
SONORA         CLOUDY    52  21  30 CALM      30.20R
OZONA          FAIR      52  19  28 NE6       30.20R
BRADY          NOT AVBL
$$

TEXAS PANHANDLE/OKLAHOMA PANHANDLE

CITY           SKY/WX    TMP DP  RH WIND       PRES   REMARKS
AMARILLO       CLEAR     37  19  48 NE12      30.33R WCI  29
BORGER         CLEAR     41  14  33 NE15      30.36R WCI  33
CANADIAN       CLEAR     41  15  34 N12       30.35R WCI  34
DALHART        CLEAR     36  18  48 NE16      30.36R WCI  26
DUMAS          CLEAR     33  17  51 N10       30.36R WCI  25
GUYMON         NOT AVBL
HEREFORD       NOT AVBL
PAMPA          CLEAR     39  15  38 NE15G24   30.35R WCI  30
PERRYTON       CLEAR     37  17  45 NW13      30.36R WCI  28
$$

SOUTHERN PANHANDLE/SOUTH PLAINS/ROLLING PLAINS

CITY           SKY/WX    TMP DP  RH WIND       PRES   REMARKS
LUBBOCK        PTCLDY    43  18  36 NE9       30.26R WCI  38
SNYDER           N/A     51  24  34 NE6       30.25R
CHILDRESS      CLEAR     50  19  29 NE13      30.28R
SEMINOLE       CLOUDY    48  19  31 E6        30.26R
$$

PERMIAN BASIN

CITY           SKY/WX    TMP DP  RH WIND       PRES   REMARKS
MIDLAND        CLOUDY    55  18  23 E10       30.23R
ODESSA         CLOUDY    49  20  31 E12       30.24R
WINK           CLOUDY    53  19  26 NE8       30.20R
$$

FAR WEST/SOUTHWEST MOUNTAINS/TRANS PECOS

CITY           SKY/WX    TMP DP  RH WIND       PRES   REMARKS
ALPINE         CLOUDY    51  12  21 CALM      30.31R
DRYDEN           N/A     56  14  19 NW5       30.16R
EL PASO        CLOUDY    56  13  18 S5        30.24R
FORT STOCKTON  CLEAR     53  20  27 E5        30.21R
GUADALUPE PASS CLOUDY    50  15  24 NE18      30.28R
MARFA          CLOUDY    47   9  21 N6        30.26R
PECOS          CLOUDY    54  21  27 E5        30.19R
$$

DALLAS/FORT WORTH METROPLEX

CITY           SKY/WX    TMP DP  RH WIND       PRES   REMARKS
DFW AIRPORT    PTCLDY    50  30  46 NW6       30.16R
FTW MEACHAM    CLEAR     51  30  44 N6        30.17R
DAL-EXECUTIVE  CLEAR     51  32  48 CALM      30.15R
GRAND PRAIRIE  CLEAR     54  31  42 CALM      30.18R
ADDISON        CLEAR     54  32  43 CALM      30.16R
MESQUITE       CLEAR     51  33  50 CALM      30.16R
LANCASTER      CLEAR     46  28  48 CALM      30.17R
$$

NORTH CENTRAL TEXAS

CITY           SKY/WX    TMP DP  RH WIND       PRES   REMARKS
SHRMAN/DENISON CLEAR     48  32  53 N7        30.19R
GAINESVILLE    CLEAR     47  30  51 N6        30.21R
BRIDGEPORT     CLEAR     52  33  47 NW5       30.22R
DENTON         CLEAR     50  31  48 N8        30.17R
WAXAHACHIE     CLEAR     53  36  52 CALM      30.17R
GRANBURY       CLEAR     52  29  40 CALM      30.19R
$$

WESTERN NORTH TEXAS

CITY           SKY/WX    TMP DP  RH WIND       PRES   REMARKS
WICHITA FALLS  CLEAR     45  27  49 N8        30.22R
VERNON         CLEAR     49  23  35 N13       30.27R
BRECKENRIDGE   CLOUDY    53  26  34 N7        30.21R
COMANCHE       CLEAR     52  26  36 N8        30.18R
$$

CENTRAL AND SOUTH CENTRAL TEXAS

CITY           SKY/WX    TMP DP  RH WIND       PRES   REMARKS
AUSTIN/BERGSTM PTCLDY    49  33  54 S7        30.13R
WACO           PTCLDY    48  34  58 E6        30.14R
HILLSBORO      CLEAR     51  33  49 CALM      30.16R
TEMPLE         PTCLDY    51  33  50 S8        30.14R
KILLEEN-GRAY   CLOUDY    51  32  48 CALM      30.11R
FORT HOOD      CLEAR     55  33  43 E7        30.11R
GEORGETOWN     CLEAR     54  30  40 CALM      30.12R
LAGO VISTA     FAIR      59  31  34 S8        30.13R
SAN MARCOS     CLOUDY    50  28  43 S3        30.15R
NEW BRAUNFELS  CLOUDY    50  29  44 S6        30.13R
RANDOLPH AFB   CLOUDY    57  29  34 SW6       30.14R
SAN ANTONIO    CLOUDY    59  29  31 S5        30.15R
STINSON        PTCLDY    52  32  46 CALM      30.14R
PLEASANTON     NOT AVBL
LA GRANGE      CLEAR     53  36  53 S5        30.13S
GIDDINGS       CLEAR     48  35  60 S3        30.17F
$$

EAST TEXAS

CITY           SKY/WX    TMP DP  RH WIND       PRES   REMARKS
PARIS          CLEAR     50  30  46 W7        30.14R
CLARKSVILLE    NOT AVBL
TYLER          CLEAR     54  32  43 NW5       30.15R
LONGVIEW       CLEAR     46  36  68 W5        30.13R
PALESTINE      CLEAR     49  35  58 CALM      30.16R
NACOGDOCHES    CLEAR     45  36  70 CALM      30.15R
$$

TEXAS HILL COUNTRY AND EDWARDS PLATEAU

CITY           SKY/WX    TMP DP  RH WIND       PRES   REMARKS
LLANO          CLOUDY    52  32  46 CALM      30.14R
HORSESHOE BAY  FAIR      58  29  33 S6        30.11R
KERRVILLE      CLOUDY    51  30  44 CALM      30.15R
FREDERICKSBRG  CLEAR     51  26  37 W6        30.14R
ROCKSPRINGS    CLEAR     55  21  26 CALM      30.18R
HONDO          CLOUDY    54  24  31 CALM      30.17R
UVALDE         CLOUDY    51  30  45 CALM      30.16R
DEL RIO        CLOUDY    61  21  21 E5        30.14R
$$

SOUTHEAST TEXAS

CITY           SKY/WX    TMP DP  RH WIND       PRES   REMARKS
COLLEGE STN    CLEAR     53  35  50 CALM      30.15S
CALDWELL       CLEAR     48  34  57 CALM      30.17S
CROCKETT       CLEAR     45  37  76 CALM      30.18S
BRENHAM        CLEAR     54  36  50 SE5       30.16S
HUNTSVILLE     CLEAR     50  35  56 CALM      30.15R
CONROE         CLEAR     45  37  73 CALM      30.17R
HOUSTON BUSH   PTCLDY    58  44  60 S5        30.17R
HOUSTON HOBBY  PTCLDY    56  42  59 S8        30.17R
PERLAND        CLEAR     54  45  71 S5        30.18S
WHARTON        CLEAR     48  34  58 S3        30.19R
$$

THE UPPER TEXAS COAST

CITY           SKY/WX    TMP DP  RH WIND       PRES   REMARKS
ORANGE         CLEAR     44  40  87 CALM      30.20R
PORT ARTHUR    CLEAR     47  43  86 CALM      30.18R
GALVESTON      CLEAR     53  50  89 CALM      30.19R
ANGLETON       CLEAR     49  43  80 CALM      30.19R
BAY CITY       CLEAR     48  44  85 CALM      30.18R
$$

TEXAS COASTAL BEND, RIO GRANDE PLAINS DEEP SOUTH TEXAS

CITY           SKY/WX    TMP DP  RH WIND       PRES   REMARKS
VICTORIA       PTCLDY    51  44  77 S8        30.18R
BEEVILLE       FAIR      54  44  69 SE5       30.16R
ROCKPORT       PTCLDY    58  48  69 S6        30.17R
PORT ARANSAS   PTCLDY    58  51  77 S7        30.16R
PORT LAVACA    CLOUDY    54  46  74 SE5       30.18R
CORPUS CHRISTI PTCLDY    55  41  59 SE12      30.16R
KINGSVILLE NAS MOCLDY    53  45  74 E6        30.16R
COTULLA        PTCLDY    58  25  28 SE5       30.14R
LAREDO         CLOUDY    64  25  22 E3        30.13R
BROWNSVILLE    PTCLDY    56  45  66 SE7       30.17R
PORT ISABEL    MOCLDY    58  48  69 S7        30.15F
HEBBRONVILLE   NOT AVBL
MCALLEN        PTCLDY    63  40  42 S13       30.15R
WESLACO        PTCLDY    61  40  46 S12       30.14F
FALFURRIAS     MOCLDY    57  41  54 E5        30.14R
EDINBURG       PTCLDY    64  38  37 S9        30.15R
$$



USA.gov is the U.S. government's official web portal to all federal, state and local government web resources and services.